Find Kosmos-1251

NORAD ID: 12321 Int'l Des: 1981-022 Owner: GUKOS Country: SU operational
LEOCIRCULAR

現在のビュー

3D地球を読み込み中...

Kosmos-1251について

説明を読み込み中...

次回通過

Passes for default location (London). Set your location on the main map for personalized predictions.

高度履歴

Loading altitude history...

軌道要素

1 12321U 81022B 26151.31925368 -.00000022 00000-0 -36265-4 0 9996
2 12321 74.0297 87.4809 0044545 177.3858 301.1208 12.56490179 74805
Epoch: May 31, 2026 • Age: 14 hours

現在のステータス

高度 1421.3 km
速度 7.16 km/s
衛星直下点 -32.38°S, 64.61°E
打ち上げ日 Mar 6, 1981
運用期間 45.2 years
タイプ other

技術仕様

分類 Payload
質量 60.00 kg
乾燥質量 60.00 kg
総質量 60.00 kg
長さ 0.80 m
直径 0.80 m
スパン 0.80 m
形状 Poly
製造者 NPOPM
バスタイプ Strela-1 11F625
フェーズステータス In Orbit
所有者/国 GUKOS/SU

Most Searched